Location: Newark
(48.8567°N, 2.3519°E)
Time: 11:20:23
(UTC+00:00)

Envisat - Visible Passes

Search period start: 12 November 2019 00:00
Search period end: 22 November 2019 00:00
Orbit: 764 x 766 km, 98.1° (Epoch: 12 November)

Date Brightness Start Highest point End Pass type
(mag) Time Alt. Az. Time Alt. Az. Time Alt. Az.
12 Nov 6.1 05:22:17 10° NE 05:24:56 14° E 05:27:34 10° ESE visible
12 Nov 3.8 16:40:03 10° ESE 16:44:21 29° ENE 16:48:39 10° N visible
12 Nov 4.1 18:18:19 10° S 18:23:10 46° W 18:28:05 10° NNW visible
13 Nov 3.0 17:41:14 10° SSE 17:46:19 88° ENE 17:51:27 10° NNW visible
13 Nov 6.0 19:23:30 10° WSW 19:26:03 14° W 19:28:39 10° NW visible
14 Nov 5.7 05:46:43 10° NE 05:50:45 23° E 05:54:45 10° SE visible
14 Nov 3.3 17:04:51 10° SE 17:09:40 45° ENE 17:14:29 10° N visible
14 Nov 5.0 18:44:31 10° SSW 18:48:51 28° W 18:53:13 10° NW visible
15 Nov 6.4 05:12:02 10° ENE 05:13:29 11° E 05:14:57 10° ESE visible
15 Nov 3.7 18:06:52 10° S 18:11:51 56° W 18:16:53 10° NNW visible
16 Nov 4.7 06:11:44 10° NNE 06:16:28 38° E 06:21:10 10° SSE visible
16 Nov 2.9 17:30:01 10° SSE 17:35:03 73° ENE 17:40:09 10° N visible
16 Nov 5.7 19:11:20 10° SW 19:14:38 17° W 19:17:56 10° NW visible
17 Nov 5.9 05:35:47 10° NE 05:39:22 19° E 05:42:55 10° SE visible
17 Nov 3.5 16:53:49 10° SE 16:58:27 37° ENE 17:03:06 10° N visible
17 Nov 4.6 18:32:53 10° SSW 18:37:29 34° W 18:42:08 10° NNW visible
18 Nov 3.3 17:55:30 10° S 18:00:33 70° WSW 18:05:39 10° NNW visible
19 Nov 5.1 06:00:37 10° NNE 06:05:07 31° E 06:09:35 10° SSE visible
19 Nov 3.0 17:18:50 10° SSE 17:23:49 59° ENE 17:28:49 10° N visible
19 Nov 5.4 18:59:25 10° SW 19:03:14 21° W 19:07:04 10° NW visible
20 Nov 6.0 05:25:00 10° NE 05:27:56 15° E 05:30:53 10° ESE visible
20 Nov 3.7 16:42:51 10° SE 16:47:15 31° ENE 16:51:40 10° N visible
20 Nov 4.2 18:21:21 10° SSW 18:26:09 42° W 18:30:59 10° NNW visible
21 Nov 4.1 06:25:49 10° NNE 06:30:46 50° E 06:35:42 10° S visible
21 Nov 3.0 17:44:11 10° SSE 17:49:16 85° WSW 17:54:24 10° NNW visible
21 Nov 6.1 19:26:53 10° WSW 19:29:04 13° W 19:31:16 10° WNW visible
